Location: Newark
(33.6439°N, 114.9881°W)
Time: 17:36:04
(UTC+00:00)

Tiros 1 - Pass Details

Date: 25 July 2019
Orbit: 631 x 664 km, 48.4° (Epoch: 24 August)

Event Time Altitude Azimuth Distance (km) Brightness Sun altitude
Rises 20:47:04 0° 301° (WNW) 2,991 10.6 70.5°
Reaches altitude 10° 20:50:38 10° 327° (NNW) 2,081 9.9 70.0°
Maximum altitude 20:53:01 14° 357° (N) 1,852 9.5 69.6°
Drops below altitude 10° 20:55:25 10° 28° (NNE) 2,082 9.7 69.2°
Sets 20:58:58 0° 54° (NE) 2,993 10.3 68.6°
